Showing default

LEMUR 2 NEUROSPICY, 63355

Orbit data source: Space-Track

LEMUR 2 NEUROSPICY, 63355 is a payload satellite owned by OroraTech (US) in SSO that was launched on Wed, 26 Mar 2025 UTC via an ELECTRON launch vehicle from the Rocket Lab Launch Complex (RLLC). Payload-class satellites include a variety of spacecraft equipped with specific instruments for various scientific and technological missions. These include communications satellites like Starlink; space stations such as the ISS; scientific satellites like the Hubble; Earth observation satellites from companies like Planet Labs, Umbra, and HawkEye 360; GPS; miniature CubeSats for education and research; and military/defense satellites.

Loading next visibility...
Identifier
63355, 2025-061E
Orbit
SSO
Country
Flag of USUS
Related business
Manufacturer
Spire/Glasgow
Mission
Operational Commercial Imaging
Bus & Motor
CUBESAT 6U, Unknown motor
Mass
~15 kg wet, ~15 kg dry
Launch date (UTC)
2025-03-26 (7 months ago)
Launch vehicle
ELECTRON
Launch site
Rocket Lab Launch Complex (RLLC)
Object type
Payload
Rocket body
Debris
Shape & HBR
Box + 2 Pan, 14.5 m
Radar Cross Section
0.065 m², Medium (>0.1 m² and < 1m²)

Expand to show TLE details & history
Last TLE update: 10 hours ago

TLE from 10 hours ago
0 LEMUR 2 NEUROSPICY
1 63355U 25061E   25312.70575204  .00006811  00000-0  40050-3 0  9997
2 63355  97.5391 285.5063 0016036 304.4114  55.5599 15.11886650 34275
Epoch: 2025-11-08T16:56Z
TLE epoch observation values (Epoch: 2025-11-08T16:56:16.976Z)
Latitude
-0.00009°
Longitude
-16.69595°
Altitude
527.267 km
Speed
7.603 km/s
True Right ascension
19h 02m 01s
True Declination
0° 00' 00"
Sunlit
Object was in daylight at epoch
Visualization orbit readout
Latitude
Unknown
Longitude
Unknown
Altitude
Unknown
Speed
Unknown
Apparent Right ascension
Unknown
Apparent Declination
Unknown
Sunlit
N/A
Visualization observer readout
Local Sidereal Time
23:29:53
Azimuth
Unknown
Elevation
Unknown
Doppler factor
Unknown
Orbital elements
Apogee altitude
538.503 km
Perigee altitude
516.355 km
Semi-major axis
6,905.566 km
Eccentricity
0.0016
Inclination
97.5391°
RAAN
285.5063°
Arg. of periapsis
304.4114°
True anomaly
55.71162°
Mean anomaly
55.5599°
Eccentric anomaly
55.63574°
Mean motion
3.7822 °/min
Orbital period
95.18 mins
BSTAR
0.0004005
Loading maneuver chart data...
Computing Atmospheric mass density...
Loading historical data...
Loading historical data...
Loading historical data...
Loading historical data...
Loading historical data...
Loading historical data...
Loading historical data...

Documentation

Showing up to 5 results
|